Meteo Giornale » Osservazioni meteo Svizzera » Sion

ore: 01:50 - Osservazioni Meteo Sion
Lat. 46° 13' N Lon. 7° 20' E Alt. 482 metri s.l.m.

molto_nuvoloso Europe/Zurich

-2 °C

Molto Nuvoloso

Temp. 24 Ore

-4 °C

3 °C

Nord

5.5 Km/h

Dew point -6 °C

Umidità 73 %

Visibilità  10 Km

Il sole sorge alle ore 07:57

Il sole tramonta alle ore 17:29

Data e Ora Cielo e Fenomeni T °C DP °C Um. % Pres. hPa Vis. km Vento km/h
Oggi h: 01:50 molto_nuvoloso Molto Nuvoloso -2 -6 73 1022 10 N 5.5
Oggi h: 01:20 molto_nuvoloso Molto Nuvoloso -2 -6 73 1022 10 E 7.4
Oggi h: 00:50 molto_nuvoloso Molto Nuvoloso -2 -6 73 1022 10 N 5.5
Oggi h: 00:20 coperto Coperto -2 -7 68 1022 10 N 5.5
Ieri h: 23:20 coperto Coperto -2 -7 68 1023 10 N 3.7
Ieri h: 22:50 coperto Coperto -2 -7 68 1023 10 N 5.5
Ieri h: 22:20 coperto Coperto -3 -7 73 1023 10 N 0
Ieri h: 21:50 coperto Coperto -3 -7 73 1023 10 N 3.7
Ieri h: 21:20 molto_nuvoloso Molto Nuvoloso -4 -7 79 1023 10 N 3.7
Ieri h: 20:50 sereno Sereno -3 -7 73 1023 10 N 0
Ieri h: 20:20 sereno Sereno -3 -7 73 1022 10 N 3.7
Ieri h: 19:50 sereno Sereno -2 -7 68 1022 10 N 1.8
Ieri h: 19:20 poco_nuvoloso Poco Nuvoloso -2 -7 68 1022 10 N 0
Ieri h: 18:50 nuvoloso Nuvoloso -1 -7 63 1022 10 N 3.7
Ieri h: 18:20 sereno Sereno -1 -7 63 1022 10 N 1.8
Ieri h: 17:50 poco_nuvoloso Poco Nuvoloso 0 -7 59 1022 10 N 3.7
Ieri h: 17:20 poco_nuvoloso Poco Nuvoloso 1 -7 55 1022 10 N 5.5
Ieri h: 16:50 poco_nuvoloso Poco Nuvoloso 1 -7 55 1022 10 N 5.5
Ieri h: 16:20 poco_nuvoloso Poco Nuvoloso 1 -7 55 1022 10 O 11.1
Ieri h: 15:50 poco_nuvoloso Poco Nuvoloso 3 -7 47 1022 10 N 3.7
Ieri h: 15:20 poco_nuvoloso Poco Nuvoloso 2 -7 51 1021 10 N 5.5
Ieri h: 14:50 poco_nuvoloso Poco Nuvoloso 2 -7 51 1022 10 SO 9.3
Ieri h: 14:20 poco_nuvoloso Poco Nuvoloso 2 -7 51 1022 10 N 3.7
Ieri h: 13:50 poco_nuvoloso Poco Nuvoloso 2 -7 51 1023 10 N 3.7
Ieri h: 13:20 poco_nuvoloso Poco Nuvoloso 2 -6 55 1023 10 N 3.7
Ieri h: 12:50 poco_nuvoloso Poco Nuvoloso 3 -6 51 1023 10 N 0
Ieri h: 12:20 poco_nuvoloso Poco Nuvoloso 1 -6 59 1023 10 N 3.7
Ieri h: 11:50 poco_nuvoloso Poco Nuvoloso 1 -5 64 1023 10 N 1.8
Ieri h: 11:20 poco_nuvoloso Poco Nuvoloso -0 -6 63 1023 10 N 0
Ieri h: 10:50 poco_nuvoloso Poco Nuvoloso -1 -6 68 1023 10 N 1.8
Ieri h: 10:20 poco_nuvoloso Poco Nuvoloso -3 -6 79 1023 10 N 1.8
Ieri h: 09:50 poco_nuvoloso Poco Nuvoloso -3 -6 79 1023 10 N 1.8
Ieri h: 09:20 nuvoloso Nuvoloso -3 -6 79 1022 10 N 3.7
Ieri h: 08:50 nuvoloso Nuvoloso -4 -5 92 1022 10 N 5.5
Ieri h: 08:20 nuvoloso Nuvoloso -4 -6 85 1022 10 N 0
Ieri h: 07:50 nuvoloso Nuvoloso -4 -6 85 1021 10 N 1.8
Ieri h: 07:20 sereno Sereno -4 -5 92 1021 10 N 0
Ieri h: 06:50 molto_nuvoloso Molto Nuvoloso -4 -5 92 1020 10 N 0
Ieri h: 06:20 poco_nuvoloso Poco Nuvoloso -4 -5 92 1020 10 N 0
Ieri h: 05:50 poco_nuvoloso Poco Nuvoloso -3 -5 86 1019 10 N 1.8
Ieri h: 05:20 coperto Coperto -2 -4 86 1019 10 N 3.7
Ieri h: 04:50 coperto Coperto -3 -4 92 1019 10 N 1.8
Ieri h: 04:20 molto_nuvoloso Molto Nuvoloso -2 -4 86 1018 10 N 3.7
Ieri h: 03:50 poco_nuvoloso Poco Nuvoloso -2 -4 86 1018 10 N 5.5
Ieri h: 03:20 sereno Sereno -2 -4 86 1017 10 N 0
Ieri h: 02:50 molto_nuvoloso Molto Nuvoloso -1 -4 80 1017 10 N 0
Ieri h: 02:20 coperto Coperto -1 -4 80 1017 10 N 0
Ieri h: 01:50 poco_nuvoloso Poco Nuvoloso -1 -4 80 1016 10 N 0